Weather History for Pinedale, WY

Change the Weather History Date:

Monday, January 28, 2013

  Actual Average (KBPI) Record (KBPI)
Temperature  
Mean Temperature 8 °F 11 °F  
Max Temperature 21 °F 26 °F 39 °F (1981)
Min Temperature -5 °F -2 °F -23 °F (1985)
Degree Days  
Heating Degree Days 57 54  
Month to date heating degree days 1512  
Since 1 July heating degree days 5951  
Cooling Degree Days 0 0  
Month to date cooling degree days 0  
Year to date cooling degree days 0  
Moisture  
Dew Point 5 °F    
Average Humidity 79    
Maximum Humidity 92    
Minimum Humidity 58    
Precipitation  
Precipitation 0.00 in 0.00 in 0.18 in (2009)
Month to date precipitation 0.28  
Year to date precipitation 0.28  
Sea Level Pressure  
Sea Level Pressure 29.75 in    
Wind  
Wind Speed 8 mph (WNW)    
Max Wind Speed 21 mph    
Max Gust Speed 24 mph    
Visibility 10 miles    
Events      
T = Trace of Precipitation, MM = Missing Value Source: NWS Daily Summary

Daily Weather History Graph

Daily Weather History Graph

Search for Another Location

Airport:

Trip Planner

Search our weather history database for the weather conditions in past years. The results will help you decide how hot, cold, wet, or windy it might be!

Date:

Astronomy

Jan. 28, 2013 Rise Set
Actual Time 7:37 AM MST 5:27 PM MST
Civil Twilight 7:07 AM MST 5:57 PM MST
Nautical Twilight 6:33 AM MST 6:31 PM MST
Astronomical Twilight 5:59 AM MST 7:05 PM MST
Moon 7:29 PM MST (1/28) 8:01 AM MST (1/28)
Length of Visible Light 10h 50m
Length of Day
9h 50m
Full, 97% of the Moon is Illuminated
Jan 28
Full
Feb 3
Last Quarter
Feb 10
New
Feb 17
First Quarter
Feb 25
Full

Hourly Weather History & Observations

Time (MST) Temp. Windchill Dew Point Humidity Pressure Visibility Wind Dir Wind Speed Gust Speed Precip Events Conditions
12:15 AM 15.8 °F 2.1 °F 12.2 °F 86% 29.71 in 10.0 mi West 12.7 mph - N/A   Clear
12:35 AM 12.2 °F - 10.4 °F 92% 29.71 in 10.0 mi Calm Calm - N/A   Clear
12:55 AM 12.2 °F 2.9 °F 10.4 °F 92% 29.71 in 10.0 mi West 5.8 mph - N/A   Clear
1:15 AM 12.2 °F 4.3 °F 10.4 °F 92% 29.71 in 10.0 mi West 4.6 mph - N/A   Clear
1:35 AM 12.2 °F 1.7 °F 10.4 °F 92% 29.71 in 10.0 mi West 6.9 mph - N/A   Clear
1:55 AM 12.2 °F -0.2 °F 8.6 °F 85% 29.71 in 10.0 mi West 9.2 mph - N/A   Scattered Clouds
2:15 AM 12.2 °F -3.1 °F 8.6 °F 85% 29.71 in 10.0 mi West 13.8 mph - N/A   Mostly Cloudy
2:35 AM 12.2 °F -2.5 °F 8.6 °F 85% 29.72 in 10.0 mi West 12.7 mph - N/A   Scattered Clouds
2:55 AM 12.2 °F -2.5 °F 8.6 °F 85% 29.72 in 10.0 mi WNW 12.7 mph - N/A   Scattered Clouds
3:15 AM 6.8 °F -6.9 °F 5.0 °F 92% 29.72 in 10.0 mi West 9.2 mph - N/A   Scattered Clouds
3:35 AM 6.8 °F -3.5 °F 5.0 °F 92% 29.73 in 10.0 mi NNW 5.8 mph - N/A   Scattered Clouds
3:55 AM 10.4 °F 0.8 °F 6.8 °F 85% 29.73 in 10.0 mi NW 5.8 mph - N/A   Mostly Cloudy
4:15 AM 8.6 °F -2.6 °F 5.0 °F 85% 29.72 in 10.0 mi WNW 6.9 mph - N/A   Overcast
4:55 AM 10.4 °F 0.8 °F 8.6 °F 92% 29.74 in 10.0 mi WNW 5.8 mph - N/A   Scattered Clouds
5:15 AM 14.0 °F 5.1 °F 10.4 °F 86% 29.74 in 10.0 mi WNW 5.8 mph - N/A   Mostly Cloudy
5:35 AM 12.2 °F - 8.6 °F 85% 29.74 in 10.0 mi Calm Calm - N/A   Mostly Cloudy
5:55 AM 10.4 °F -0.4 °F 8.6 °F 92% 29.73 in 10.0 mi North 6.9 mph - N/A   Mostly Cloudy
6:15 AM 12.2 °F - 8.6 °F 85% 29.73 in 10.0 mi Calm Calm - N/A   Mostly Cloudy
6:35 AM 10.4 °F - 8.6 °F 92% 29.74 in 10.0 mi Calm Calm - N/A   Overcast
6:55 AM 12.2 °F 4.3 °F 6.8 °F 79% 29.74 in 10.0 mi WNW 4.6 mph - N/A   Overcast
7:15 AM 8.6 °F 0.1 °F 5.0 °F 85% 29.74 in 10.0 mi NW 4.6 mph - N/A   Scattered Clouds
7:35 AM 8.6 °F -2.6 °F 5.0 °F 85% 29.74 in 10.0 mi WNW 6.9 mph - N/A   Mostly Cloudy
8:15 AM 6.8 °F -3.5 °F 3.2 °F 85% 29.74 in 10.0 mi NW 5.8 mph - N/A   Scattered Clouds
8:35 AM 6.8 °F -5.9 °F 3.2 °F 85% 29.75 in 10.0 mi NW 8.1 mph - N/A   Mostly Cloudy
8:55 AM 8.6 °F -3.7 °F 3.2 °F 79% 29.75 in 10.0 mi NW 8.1 mph - N/A   Overcast
9:15 AM 8.6 °F -3.7 °F 3.2 °F 79% 29.76 in 10.0 mi NNW 8.1 mph - N/A   Overcast
9:35 AM 10.4 °F -1.5 °F 5.0 °F 79% 29.76 in 10.0 mi NW 8.1 mph - N/A   Mostly Cloudy
9:55 AM 12.2 °F -0.2 °F 5.0 °F 73% 29.76 in 10.0 mi WNW 9.2 mph - N/A   Scattered Clouds
10:15 AM 14.0 °F 2.0 °F 8.6 °F 79% 29.76 in 10.0 mi WNW 9.2 mph - N/A   Clear
10:35 AM 14.0 °F 2.9 °F 8.6 °F 79% 29.77 in 10.0 mi WNW 8.1 mph - N/A   Clear
10:55 AM 14.0 °F 3.9 °F 8.6 °F 79% 29.77 in 10.0 mi NW 6.9 mph - N/A   Scattered Clouds
11:15 AM 15.8 °F 7.2 °F 8.6 °F 73% 29.77 in 10.0 mi NW 5.8 mph - N/A   Scattered Clouds
11:35 AM 19.4 °F 8.6 °F 10.4 °F 68% 29.75 in 10.0 mi WNW 9.2 mph - N/A   Clear
11:55 AM 19.4 °F 7.9 °F 8.6 °F 63% 29.75 in 10.0 mi WNW 10.4 mph - N/A   Clear
12:15 PM 17.6 °F 4.3 °F 10.4 °F 73% 29.75 in 10.0 mi West 12.7 mph - N/A   Clear
12:35 PM 19.4 °F 6.0 °F 10.4 °F 68% 29.74 in 10.0 mi West 13.8 mph - N/A   Clear
12:55 PM 19.4 °F 5.0 °F 10.4 °F 68% 29.73 in 7.0 mi West 16.1 mph 21.9 mph N/A   Clear
1:15 PM 21.2 °F 7.8 °F 10.4 °F 63% 29.73 in 10.0 mi WNW 15.0 mph - N/A   Clear
1:35 PM 19.4 °F 3.6 °F 8.6 °F 63% 29.72 in 1.5 mi WNW 19.6 mph 23.0 mph N/A   Haze
1:55 PM 19.4 °F 4.5 °F 8.6 °F 63% 29.72 in 4.0 mi WNW 17.3 mph - N/A   Haze
2:15 PM 19.4 °F 3.6 °F 8.6 °F 63% 29.72 in 7.0 mi WNW 19.6 mph 24.2 mph N/A   Clear
2:35 PM 19.4 °F 3.2 °F 8.6 °F 63% 29.73 in 10.0 mi WNW 20.7 mph 24.2 mph N/A   Clear
2:55 PM 19.4 °F 4.5 °F 8.6 °F 63% 29.73 in 10.0 mi West 17.3 mph 23.0 mph N/A   Clear
3:15 PM 19.4 °F 4.5 °F 8.6 °F 63% 29.74 in 10.0 mi West 17.3 mph - N/A   Clear
3:35 PM 19.4 °F 5.0 °F 8.6 °F 63% 29.74 in 10.0 mi West 16.1 mph - N/A   Clear
3:55 PM 19.4 °F 5.0 °F 8.6 °F 63% 29.74 in 10.0 mi West 16.1 mph - N/A   Clear
4:15 PM 19.4 °F 5.5 °F 6.8 °F 58% 29.75 in 10.0 mi West 15.0 mph 19.6 mph N/A   Clear
4:35 PM 17.6 °F 3.7 °F 6.8 °F 63% 29.75 in 10.0 mi West 13.8 mph - N/A   Clear
4:55 PM 17.6 °F 5.0 °F 5.0 °F 58% 29.75 in 10.0 mi WNW 11.5 mph - N/A   Clear
5:15 PM 14.0 °F 5.1 °F 5.0 °F 67% 29.76 in 10.0 mi WNW 5.8 mph - N/A   Clear
5:35 PM 10.4 °F -2.4 °F 1.4 °F 67% 29.77 in 10.0 mi WNW 9.2 mph - N/A   Clear
5:55 PM 10.4 °F -3.3 °F 1.4 °F 67% 29.77 in 10.0 mi West 10.4 mph - N/A   Clear
6:15 PM 8.6 °F 0.1 °F 1.4 °F 73% 29.78 in 10.0 mi West 4.6 mph - N/A   Clear
6:35 PM 6.8 °F -3.5 °F 1.4 °F 79% 29.79 in 10.0 mi NNW 5.8 mph - N/A   Clear
6:55 PM 3.2 °F -9.1 °F -4.0 °F 72% 29.79 in 10.0 mi WNW 6.9 mph - N/A   Clear
7:15 PM 3.2 °F -9.1 °F -2.2 °F 78% 29.79 in 10.0 mi WNW 6.9 mph - N/A   Clear
7:35 PM 1.4 °F -13.5 °F -0.4 °F 92% 29.79 in 10.0 mi West 9.2 mph - N/A   Clear
7:55 PM 1.4 °F - -0.4 °F 92% 29.79 in 10.0 mi Calm Calm - N/A   Clear
8:15 PM 1.4 °F -6.2 °F -2.2 °F 85% 29.79 in 10.0 mi West 3.5 mph - N/A   Clear
8:35 PM 1.4 °F -9.9 °F -0.4 °F 92% 29.78 in 10.0 mi WSW 5.8 mph - N/A   Clear
8:55 PM 1.4 °F -6.2 °F -0.4 °F 92% 29.78 in 10.0 mi NW 3.5 mph - N/A   Clear
9:15 PM -2.2 °F -14.2 °F -5.8 °F 85% 29.77 in 10.0 mi WNW 5.8 mph - N/A   Clear
9:35 PM -4.0 °F -16.3 °F -5.8 °F 92% 29.77 in 10.0 mi WNW 5.8 mph - N/A   Clear
9:55 PM -5.8 °F -16.7 °F -7.6 °F 92% 29.77 in 10.0 mi West 4.6 mph - N/A   Clear
10:15 PM -5.8 °F -21.2 °F -7.6 °F 92% 29.77 in 10.0 mi NW 8.1 mph - N/A   Clear
10:35 PM -5.8 °F -19.9 °F -7.6 °F 92% 29.77 in 10.0 mi WNW 6.9 mph - N/A   Clear
10:55 PM -5.8 °F -18.4 °F -9.4 °F 84% 29.77 in 10.0 mi West 5.8 mph - N/A   Clear
11:15 PM -4.0 °F -16.3 °F -7.6 °F 85% 29.76 in 10.0 mi NW 5.8 mph - N/A   Scattered Clouds
11:35 PM -5.8 °F - -9.4 °F 84% 29.77 in 10.0 mi Calm Calm - N/A   Scattered Clouds
11:55 PM -0.4 °F - -2.2 °F 92% 29.76 in 10.0 mi Calm Calm - N/A   Scattered Clouds